GW1109 Weather Reports


time (UTC)temp
C
wind
direction
speed
KPH
gust
KPH
rain 1hr
cm
rain 24hr
cm
rain mn
cm
humidity
%
barometer
mb
20260507144550 12 283 16.1 30.6 0.00 1.17 0.00 50 1006.1
20260507143057 12 287 17.7 27.4 0.00 1.17 0.00 53 1006.0
20260507141553 12 305 14.5 27.4 0.00 1.17 0.00 54 1005.9
20260507140046 12 309 14.5 22.5 0.00 1.17 0.00 53 1005.9
20260507134545 12 289 9.7 20.9 0.00 1.17 0.00 56 1006.2
20260507133106 12 326 12.9 25.7 0.00 1.17 0.00 57 1006.4
20260507131553 12 287 12.9 19.3 0.00 1.17 0.00 58 1006.5
20260507130104 12 296 9.7 16.1 0.00 1.17 0.00 60 1006.5
20260507124547 11 343 11.3 22.5 0.00 1.17 0.00 63 1006.6
20260507123045 11 292 4.8 12.9 0.00 1.17 0.00 70 1006.7
20260507121549 10 291 4.8 14.5 0.00 1.17 0.00 75 1006.8
20260507120052 10 252 6.4 14.5 0.00 1.17 0.00 82 1006.8
20260507114614 10 294 8.0 14.5 0.00 1.17 0.00 82 1006.8
20260507113047 10 309 8.0 14.5 0.00 1.17 0.00 86 1006.7
20260507111540 9 266 1.6 6.4 0.00 1.17 0.00 88 1006.7
20260507110046 9 288 3.2 8.0 0.00 1.17 0.00 89 1006.8
20260507104546 9 0 0.0 3.2 0.00 1.17 0.00 89 1006.8
20260507103049 9 21 3.2 11.3 0.00 1.17 0.00 90 1006.4
20260507101544 9 308 3.2 9.7 0.00 1.17 0.00 91 1007.0
20260507100048 9 294 4.8 9.7 0.00 1.17 0.00 91 1006.9
20260507094547 9 286 4.8 12.9 0.00 1.17 0.00 90 1006.6
20260507093048 9 270 4.8 11.3 0.00 1.17 0.00 89 1006.7
20260507091546 9 296 4.8 11.3 0.00 1.17 0.00 89 1006.5
20260507090042 9 355 6.4 14.5 0.00 1.17 0.00 89 1005.8
20260507084556 9 333 6.4 14.5 0.00 1.17 0.00 88 1005.9
20260507083050 9 329 4.8 9.7 0.00 1.17 0.00 87 1005.9
20260507081548 9 297 6.4 16.1 0.00 1.17 0.00 87 1006.1
20260507080057 9 319 3.2 19.3 0.00 1.17 0.00 86 1005.8
20260507074544 10 299 6.4 22.5 0.00 1.17 0.00 85 1005.3
20260507073051 10 323 9.7 20.9 0.00 1.17 0.00 86 1005.3
20260507071545 10 315 8.0 17.7 0.00 1.17 0.00 87 1005.4
20260507070042 10 281 12.9 20.9 0.00 1.17 0.00 88 1005.3
20260507064542 10 292 8.0 16.1 0.00 1.17 0.00 91 1005.2
20260507063055 11 289 6.4 16.1 0.00 1.17 0.00 93 1005.0
20260507061548 11 242 8.0 16.1 0.00 1.17 0.00 93 1005.3
20260507060050 11 288 6.4 16.1 0.00 1.17 0.00 93 1005.0
20260507054546 11 271 4.8 12.9 0.00 1.17 0.00 93 1004.9
20260507053045 11 294 9.7 19.3 0.00 1.17 0.00 93 1005.1
20260507051550 11 284 4.8 17.7 0.00 1.17 0.00 92 1005.0
20260507050049 11 275 11.3 20.9 0.00 1.17 0.00 93 1005.0
20260507044541 12 247 11.3 19.3 0.05 1.17 0.00 94 1004.9
20260507043042 12 265 8.0 22.5 0.13 1.17 0.00 95 1004.8
20260507041541 13 291 9.7 20.9 0.13 1.17 0.00 95 1004.4
20260507040043 13 293 11.3 20.9 0.13 1.17 0.00 95 1004.5
20260507034551 13 303 11.3 22.5 0.08 1.12 1.12 92 1004.8
20260507033051 14 273 12.9 30.6 0.03 1.04 1.04 92 1004.9
20260507031543 15 300 14.5 30.6 0.03 1.04 1.04 98 1004.6
20260507030043 16 329 8.0 22.5 0.05 1.04 1.04 100 1004.2
20260507024600 16 317 11.3 20.9 0.05 1.04 1.04 100 1004.2
20260507023050 17 236 8.0 19.3 0.03 1.02 1.02 100 1004.0
20260507021547 17 215 8.0 19.3 0.03 1.02 1.02 100 1004.2
20260507020105 17 262 8.0 25.7 0.00 0.99 0.99 100 1004.2
20260507014553 17 236 9.7 20.9 0.00 0.99 0.99 100 1004.3
20260507013054 17 181 8.0 27.4 0.00 0.99 0.99 100 1004.2
20260507011547 17 216 9.7 24.1 0.00 0.99 0.99 100 1004.2
20260507010050 17 167 11.3 24.1 0.00 0.99 0.99 100 1004.4
20260507004553 17 222 11.3 24.1 0.00 0.99 0.99 100 1004.5
20260507003049 17 216 9.7 27.4 0.00 0.99 0.99 100 1004.4
20260507001545 17 218 9.7 25.7 0.00 0.99 0.99 100 1004.3
20260507000050 17 212 8.0 27.4 0.00 0.99 0.99 100 1004.1
20260506234551 17 209 12.9 32.2 0.00 0.99 0.99 100 1004.3
20260506233101 17 214 9.7 35.4 0.00 0.99 0.99 100 1004.4
20260506231553 17 213 14.5 27.4 0.00 0.99 0.99 100 1004.3
20260506230049 17 188 12.9 27.4 0.00 0.99 0.99 100 1004.4
20260506224541 17 178 11.3 24.1 0.00 0.99 0.99 100 1004.5
20260506223045 17 174 11.3 27.4 0.00 0.99 0.99 100 1004.7
20260506221549 17 209 14.5 35.4 0.03 0.99 0.99 100 1004.7
20260506220049 18 207 14.5 30.6 0.03 0.99 0.99 100 1004.8
20260506214550 18 199 9.7 20.9 0.05 0.99 0.99 100 1005.0
20260506213057 18 169 9.7 27.4 0.08 0.97 0.97 100 1005.0
20260506211543 18 139 8.0 20.9 0.15 0.97 0.97 100 1005.1
20260506210048 18 105 6.4 16.1 0.20 0.97 0.97 100 1005.2
20260506204548 18 187 4.8 11.3 0.20 0.94 0.94 100 1005.6
20260506203047 18 163 4.8 12.9 0.18 0.89 0.89 100 1005.6
20260506201546 18 143 3.2 12.9 0.15 0.81 0.81 100 1005.5
20260506200052 18 182 1.6 11.3 0.23 0.76 0.76 100 1005.3
20260506194541 18 199 3.2 12.9 0.28 0.74 0.74 99 1005.7
20260506193046 17 205 4.8 16.1 0.36 0.71 0.71 98 1005.8
20260506191546 17 174 4.8 14.5 0.53 0.66 0.66 97 1006.3
20260506190047 17 215 4.8 14.5 0.53 0.53 0.53 95 1006.4
20260506184552 17 225 6.4 20.9 0.43 0.43 0.43 93 1006.2
20260506183054 17 250 9.7 24.1 0.36 0.36 0.36 89 1006.7
20260506181615 17 230 1.6 8.0 0.13 0.13 0.13 80 1006.5
20260506180048 18 221 6.4 12.9 0.00 0.00 0.00 67 1006.1
20260506174545 19 189 6.4 24.1 0.00 0.00 0.00 62 1005.8
20260506173058 20 202 9.7 24.1 0.00 0.00 0.00 61 1006.0
20260506171544 20 215 12.9 33.8 0.00 0.00 0.00 58 1006.1
20260506170049 20 237 8.0 24.1 0.00 0.00 0.00 59 1006.2
20260506164548 20 211 14.5 29.0 0.00 0.00 0.00 60 1006.6
20260506163047 20 215 11.3 24.1 0.00 0.00 0.00 61 1006.9
20260506161548 20 217 9.7 27.4 0.00 0.00 0.00 62 1007.2
20260506160052 19 217 12.9 24.1 0.00 0.00 0.00 63 1007.5
20260506154552 20 188 11.3 24.1 0.00 0.00 0.00 63 1007.9
20260506153104 18 240 11.3 32.2 0.00 0.00 0.00 67 1008.1
20260506151544 18 221 6.4 29.0 0.00 0.00 0.00 66 1007.7
20260506150059 18 229 12.9 24.1 0.00 0.00 0.00 66 1008.0